Time,TemperatureF,DewpointF,PressureIn,WindDirection,WindDirectionDegrees,WindSpeedMPH,WindSpeedGustMPH,Humidity,HourlyPrecipIn,Conditions,Clouds,dailyrainin,SoftwareType,DateUTC
2013-02-06 00:00:00,25.9,22.1,28.94,NW,306,12.6,15.6,85,0.00,,,0.00,proprietary,2013-02-06 05:00:00,
2013-02-06 00:01:00,25.9,22.0,28.94,WNW,300,9.6,14.3,85,0.00,,,0.00,proprietary,2013-02-06 05:01:00,
2013-02-06 00:04:00,25.8,21.9,28.94,WNW,297,8.7,13.0,84,0.00,,,0.00,proprietary,2013-02-06 05:04:00,
2013-02-06 00:09:00,25.7,21.6,28.94,WNW,300,9.1,10.7,84,0.00,,,0.00,proprietary,2013-02-06 05:09:00,
2013-02-06 00:12:00,25.7,21.5,28.94,WNW,303,8.8,11.7,83,0.00,,,0.00,proprietary,2013-02-06 05:12:00,
2013-02-06 00:17:00,25.6,21.4,28.95,WNW,297,7.6,13.2,83,0.00,,,0.00,proprietary,2013-02-06 05:17:00,
2013-02-06 00:22:00,25.5,21.4,28.95,NW,307,7.7,8.4,84,0.00,,,0.00,proprietary,2013-02-06 05:22:00,
2013-02-06 00:27:00,25.5,21.4,28.95,NNW,330,6.9,9.7,84,0.00,,,0.00,proprietary,2013-02-06 05:27:00,
2013-02-06 00:32:00,25.5,21.5,28.96,NW,314,10.1,16.6,84,0.00,,,0.00,proprietary,2013-02-06 05:32:00,
2013-02-06 00:38:00,25.2,21.1,28.96,NNW,330,4.4,5.8,84,0.00,,,0.00,proprietary,2013-02-06 05:38:00,
2013-02-06 00:43:00,25.1,21.0,28.96,NNW,343,6.5,8.2,84,0.00,,,0.00,proprietary,2013-02-06 05:43:00,
2013-02-06 00:48:00,25.0,20.8,28.97,NNW,331,8.8,12.1,83,0.00,,,0.00,proprietary,2013-02-06 05:48:00,
2013-02-06 00:54:00,24.9,20.5,28.96,NW,321,8.9,10.3,82,0.00,,,0.00,proprietary,2013-02-06 05:54:00,
2013-02-06 00:59:00,24.9,20.3,28.97,WNW,303,9.8,11.4,82,0.00,,,0.00,proprietary,2013-02-06 05:59:00,
2013-02-06 01:04:00,24.8,19.9,28.98,NW,309,11.1,12.6,81,0.00,,,0.00,proprietary,2013-02-06 06:04:00,
2013-02-06 01:10:00,24.8,19.8,28.98,NW,307,8.9,12.6,80,0.00,,,0.00,proprietary,2013-02-06 06:10:00,
2013-02-06 01:16:00,24.7,19.7,28.98,NNW,335,4.7,7.0,80,0.00,,,0.00,proprietary,2013-02-06 06:16:00,
2013-02-06 01:21:00,24.2,19.0,28.99,NW,316,9.8,11.3,80,0.00,,,0.00,proprietary,2013-02-06 06:21:00,
2013-02-06 01:26:00,23.9,18.7,28.99,NNW,334,8.5,12.3,80,0.00,,,0.00,proprietary,2013-02-06 06:26:00,
2013-02-06 01:32:00,23.5,18.1,28.99,NNW,347,9.4,13.4,79,0.00,,,0.00,proprietary,2013-02-06 06:32:00,
2013-02-06 01:38:00,23.3,18.0,29.00,NNW,332,6.8,8.1,79,0.00,,,0.00,proprietary,2013-02-06 06:38:00,
2013-02-06 01:43:00,23.2,17.9,29.00,NNW,335,7.8,9.6,80,0.00,,,0.00,proprietary,2013-02-06 06:43:00,
2013-02-06 01:49:00,22.9,17.6,29.00,NNW,334,10.5,12.2,79,0.00,,,0.00,proprietary,2013-02-06 06:49:00,
2013-02-06 01:54:00,22.8,17.5,29.01,NW,326,8.1,10.5,79,0.00,,,0.00,proprietary,2013-02-06 06:54:00,
2013-02-06 01:59:00,22.7,17.2,29.01,NNW,330,9.4,12.1,79,0.00,,,0.00,proprietary,2013-02-06 06:59:00,
2013-02-06 02:04:00,22.6,16.7,29.01,NW,322,6.9,9.3,77,0.00,,,0.00,proprietary,2013-02-06 07:04:00,
2013-02-06 02:10:00,22.5,15.9,29.01,WNW,299,9.5,11.7,75,0.00,,,0.00,proprietary,2013-02-06 07:10:00,
2013-02-06 02:16:00,22.3,15.2,29.01,WNW,294,4.0,6.7,73,0.00,,,0.00,proprietary,2013-02-06 07:16:00,
2013-02-06 02:22:00,21.9,14.0,29.02,WNW,299,7.5,11.7,71,0.00,,,0.00,proprietary,2013-02-06 07:22:00,
2013-02-06 02:27:00,21.3,13.2,29.03,WNW,299,12.8,15.6,70,0.00,,,0.00,proprietary,2013-02-06 07:27:00,
2013-02-06 02:32:00,21.0,12.9,29.03,NW,308,8.6,11.1,70,0.00,,,0.00,proprietary,2013-02-06 07:32:00,
2013-02-06 02:38:00,20.9,12.8,29.04,NW,314,6.3,8.0,70,0.00,,,0.00,proprietary,2013-02-06 07:38:00,
2013-02-06 02:43:00,20.7,12.7,29.04,NW,310,8.5,10.6,70,0.00,,,0.00,proprietary,2013-02-06 07:43:00,
2013-02-06 02:48:00,20.5,12.7,29.04,NW,313,5.9,7.6,71,0.00,,,0.00,proprietary,2013-02-06 07:48:00,
2013-02-06 02:53:00,20.2,12.5,29.05,WNW,300,4.0,5.2,71,0.00,,,0.00,proprietary,2013-02-06 07:53:00,
2013-02-06 02:58:00,19.8,12.2,29.05,WNW,298,4.8,5.5,71,0.00,,,0.00,proprietary,2013-02-06 07:58:00,
2013-02-06 03:03:00,19.5,12.0,29.05,NW,306,5.3,6.2,72,0.00,,,0.00,proprietary,2013-02-06 08:03:00,
2013-02-06 03:09:00,19.1,11.9,29.05,WNW,301,4.5,5.1,73,0.00,,,0.00,proprietary,2013-02-06 08:09:00,
2013-02-06 03:14:00,18.9,11.9,29.06,WNW,296,3.2,5.0,73,0.00,,,0.00,proprietary,2013-02-06 08:14:00,
2013-02-06 03:19:00,18.3,11.2,29.06,WNW,299,2.4,3.5,73,0.00,,,0.00,proprietary,2013-02-06 08:19:00,
2013-02-06 03:24:00,17.4,10.3,29.06,WSW,257,0.6,1.5,73,0.00,,,0.00,proprietary,2013-02-06 08:24:00,
2013-02-06 03:29:00,16.1,9.8,29.06,WNW,296,3.2,4.4,75,0.00,,,0.00,proprietary,2013-02-06 08:29:00,
2013-02-06 03:34:00,16.8,10.7,29.06,WNW,299,2.3,3.0,76,0.00,,,0.00,proprietary,2013-02-06 08:34:00,
2013-02-06 03:39:00,17.1,10.9,29.06,WNW,298,2.4,2.7,76,0.00,,,0.00,proprietary,2013-02-06 08:39:00,
2013-02-06 03:44:00,16.6,10.1,29.07,West,269,0.5,2.1,74,0.00,,,0.00,proprietary,2013-02-06 08:44:00,
2013-02-06 03:49:00,15.0,8.5,29.07,SW,228,0.8,1.5,74,0.00,,,0.00,proprietary,2013-02-06 08:49:00,
2013-02-06 03:54:00,14.8,8.9,29.07,North,0,0.0,0.0,77,0.00,,,0.00,proprietary,2013-02-06 08:54:00,
2013-02-06 03:59:00,15.0,9.3,29.07,North,0,0.0,0.0,77,0.00,,,0.00,proprietary,2013-02-06 08:59:00,
2013-02-06 04:04:00,15.5,9.9,29.07,North,0,0.0,0.0,78,0.00,,,0.00,proprietary,2013-02-06 09:04:00,
2013-02-06 04:10:00,15.7,10.0,29.08,North,0,0.0,0.0,77,0.00,,,0.00,proprietary,2013-02-06 09:10:00,
2013-02-06 04:15:00,15.8,10.1,29.07,North,0,0.0,0.0,77,0.00,,,0.00,proprietary,2013-02-06 09:15:00,
2013-02-06 04:20:00,15.9,10.2,29.08,North,0,0.0,0.0,77,0.00,,,0.00,proprietary,2013-02-06 09:20:00,
2013-02-06 04:25:00,16.1,10.6,29.09,North,0,0.0,0.0,78,0.00,,,0.00,proprietary,2013-02-06 09:25:00,
2013-02-06 04:30:00,15.8,10.0,29.09,North,0,0.0,0.0,77,0.00,,,0.00,proprietary,2013-02-06 09:30:00,
2013-02-06 04:35:00,15.3,9.6,29.09,North,0,0.0,0.0,77,0.00,,,0.00,proprietary,2013-02-06 09:35:00,
2013-02-06 04:40:00,14.9,9.2,29.10,North,0,0.0,0.0,77,0.00,,,0.00,proprietary,2013-02-06 09:40:00,
2013-02-06 04:45:00,14.3,8.7,29.10,North,0,0.0,0.0,78,0.00,,,0.00,proprietary,2013-02-06 09:45:00,
2013-02-06 04:50:00,13.9,8.5,29.10,North,0,0.0,0.0,78,0.00,,,0.00,proprietary,2013-02-06 09:50:00,
2013-02-06 04:55:00,13.5,8.1,29.10,North,0,0.0,0.0,78,0.00,,,0.00,proprietary,2013-02-06 09:55:00,
2013-02-06 05:01:00,12.9,7.5,29.10,North,0,0.0,0.0,78,0.00,,,0.00,proprietary,2013-02-06 10:01:00,
2013-02-06 05:06:00,12.4,7.2,29.10,North,0,0.0,0.0,78,0.00,,,0.00,proprietary,2013-02-06 10:06:00,
2013-02-06 05:11:00,12.3,7.3,29.11,SW,228,0.8,1.4,80,0.00,,,0.00,proprietary,2013-02-06 10:11:00,
2013-02-06 05:16:00,12.0,7.4,29.11,North,0,0.0,0.0,81,0.00,,,0.00,proprietary,2013-02-06 10:16:00,
2013-02-06 05:21:00,11.7,7.2,29.11,North,0,0.0,0.0,81,0.00,,,0.00,proprietary,2013-02-06 10:21:00,
2013-02-06 05:26:00,11.2,6.7,29.11,North,0,0.0,0.0,81,0.00,,,0.00,proprietary,2013-02-06 10:26:00,
2013-02-06 05:31:00,11.0,6.8,29.12,SW,228,1.0,1.6,82,0.00,,,0.00,proprietary,2013-02-06 10:31:00,
2013-02-06 05:36:00,10.5,6.3,29.12,North,0,0.0,0.0,82,0.00,,,0.00,proprietary,2013-02-06 10:36:00,
2013-02-06 05:41:00,10.2,6.1,29.12,North,0,0.0,0.0,82,0.00,,,0.00,proprietary,2013-02-06 10:41:00,
2013-02-06 05:46:00,9.3,5.1,29.12,North,0,0.0,0.0,82,0.00,,,0.00,proprietary,2013-02-06 10:46:00,
2013-02-06 05:51:00,8.9,4.9,29.12,North,0,0.0,0.0,83,0.00,,,0.00,proprietary,2013-02-06 10:51:00,
2013-02-06 05:56:00,8.5,4.6,29.12,North,0,0.0,0.0,83,0.00,,,0.00,proprietary,2013-02-06 10:56:00,
2013-02-06 06:01:00,8.2,4.4,29.12,North,0,0.0,0.0,83,0.00,,,0.00,proprietary,2013-02-06 11:01:00,
2013-02-06 06:06:00,8.0,4.2,29.12,North,0,0.0,0.0,84,0.00,,,0.00,proprietary,2013-02-06 11:06:00,
2013-02-06 06:11:00,7.7,4.0,29.12,North,0,0.0,0.0,84,0.00,,,0.00,proprietary,2013-02-06 11:11:00,
2013-02-06 06:16:00,7.3,3.6,29.13,North,0,0.0,0.0,84,0.00,,,0.00,proprietary,2013-02-06 11:16:00,
2013-02-06 06:21:00,6.8,3.1,29.13,North,0,0.0,0.0,84,0.00,,,0.00,proprietary,2013-02-06 11:21:00,
2013-02-06 06:26:00,6.5,2.9,29.13,North,0,0.0,0.0,84,0.00,,,0.00,proprietary,2013-02-06 11:26:00,
2013-02-06 06:31:00,6.3,2.7,29.14,North,0,0.0,0.0,84,0.00,,,0.00,proprietary,2013-02-06 11:31:00,
2013-02-06 06:36:00,6.2,2.8,29.14,North,0,0.0,0.0,85,0.00,,,0.00,proprietary,2013-02-06 11:36:00,
2013-02-06 06:41:00,6.1,2.7,29.14,North,0,0.0,0.0,85,0.00,,,0.00,proprietary,2013-02-06 11:41:00,
2013-02-06 06:46:00,5.7,2.3,29.14,North,0,0.0,0.0,85,0.00,,,0.00,proprietary,2013-02-06 11:46:00,
2013-02-06 06:51:00,5.3,2.0,29.14,North,0,0.0,0.0,85,0.00,,,0.00,proprietary,2013-02-06 11:51:00,
2013-02-06 06:56:00,5.3,2.1,29.14,North,0,0.0,0.0,85,0.00,,,0.00,proprietary,2013-02-06 11:56:00,
2013-02-06 07:01:00,5.2,2.1,29.14,North,0,0.0,0.0,86,0.00,,,0.00,proprietary,2013-02-06 12:01:00,
2013-02-06 07:06:00,5.0,1.8,29.14,North,0,0.0,0.0,86,0.00,,,0.00,proprietary,2013-02-06 12:06:00,
2013-02-06 07:11:00,4.7,1.5,29.15,SW,228,0.1,1.2,86,0.00,,,0.00,proprietary,2013-02-06 12:11:00,
2013-02-06 07:16:00,4.7,1.6,29.16,North,0,0.0,0.0,86,0.00,,,0.00,proprietary,2013-02-06 12:16:00,
2013-02-06 07:21:00,4.3,1.3,29.16,North,0,0.0,0.0,86,0.00,,,0.00,proprietary,2013-02-06 12:21:00,
2013-02-06 07:26:00,4.0,0.9,29.16,North,0,0.0,0.0,86,0.00,,,0.00,proprietary,2013-02-06 12:26:00,
2013-02-06 07:31:00,3.7,0.6,29.16,North,0,0.0,0.0,86,0.00,,,0.00,proprietary,2013-02-06 12:31:00,
2013-02-06 07:36:00,3.4,0.3,29.17,North,0,0.0,0.0,86,0.00,,,0.00,proprietary,2013-02-06 12:36:00,
2013-02-06 07:41:00,3.6,0.8,29.17,North,0,0.0,0.0,87,0.00,,,0.00,proprietary,2013-02-06 12:41:00,
2013-02-06 07:46:00,3.6,0.7,29.17,North,0,0.0,0.0,87,0.00,,,0.00,proprietary,2013-02-06 12:46:00,
2013-02-06 07:51:00,3.3,0.2,29.18,North,0,0.0,0.0,86,0.00,,,0.00,proprietary,2013-02-06 12:51:00,
2013-02-06 07:56:00,3.1,0.2,29.18,North,0,0.0,0.0,87,0.00,,,0.00,proprietary,2013-02-06 12:56:00,
2013-02-06 08:01:00,3.4,0.5,29.18,North,0,0.0,0.0,87,0.00,,,0.00,proprietary,2013-02-06 13:01:00,
2013-02-06 08:06:00,3.4,0.6,29.19,North,0,0.0,0.0,87,0.00,,,0.00,proprietary,2013-02-06 13:06:00,
2013-02-06 08:11:00,3.7,0.9,29.19,North,0,0.0,0.0,87,0.00,,,0.00,proprietary,2013-02-06 13:11:00,
2013-02-06 08:16:00,3.7,0.8,29.19,North,0,0.0,0.0,87,0.00,,,0.00,proprietary,2013-02-06 13:16:00,
2013-02-06 08:21:00,3.6,0.8,29.19,North,0,0.0,0.0,87,0.00,,,0.00,proprietary,2013-02-06 13:21:00,
2013-02-06 08:26:00,4.1,1.3,29.19,North,0,0.0,0.0,87,0.00,,,0.00,proprietary,2013-02-06 13:26:00,
2013-02-06 08:31:00,5.0,2.4,29.19,North,0,0.0,0.0,88,0.00,,,0.00,proprietary,2013-02-06 13:31:00,
2013-02-06 08:36:00,6.9,4.4,29.19,North,0,0.0,0.0,89,0.00,,,0.00,proprietary,2013-02-06 13:36:00,
2013-02-06 08:41:00,6.8,3.7,29.19,North,0,0.0,0.0,86,0.00,,,0.00,proprietary,2013-02-06 13:41:00,
2013-02-06 08:46:00,7.1,4.0,29.19,North,0,0.0,0.0,86,0.00,,,0.00,proprietary,2013-02-06 13:46:00,
2013-02-06 08:51:00,8.1,5.3,29.20,North,0,0.0,0.0,87,0.00,,,0.00,proprietary,2013-02-06 13:51:00,
2013-02-06 08:56:00,9.3,6.2,29.20,North,0,0.0,0.0,86,0.00,,,0.00,proprietary,2013-02-06 13:56:00,
2013-02-06 09:01:00,9.8,6.7,29.20,North,0,0.0,0.0,86,0.00,,,0.00,proprietary,2013-02-06 14:01:00,
2013-02-06 09:06:00,11.5,8.4,29.20,North,0,0.0,0.0,87,0.00,,,0.00,proprietary,2013-02-06 14:06:00,
2013-02-06 09:11:00,11.9,8.5,29.20,SE,139,1.7,1.9,86,0.00,,,0.00,proprietary,2013-02-06 14:11:00,
2013-02-06 09:16:00,13.4,10.4,29.20,North,0,0.0,0.0,87,0.00,,,0.00,proprietary,2013-02-06 14:16:00,
2013-02-06 09:21:00,15.5,12.4,29.21,North,0,0.0,0.0,86,0.00,,,0.00,proprietary,2013-02-06 14:21:00,
2013-02-06 09:26:00,17.9,14.6,29.21,North,0,0.0,0.0,86,0.00,,,0.00,proprietary,2013-02-06 14:26:00,
2013-02-06 09:31:00,20.6,17.2,29.21,North,0,0.0,0.0,86,0.00,,,0.00,proprietary,2013-02-06 14:31:00,
2013-02-06 09:36:00,21.4,16.8,29.22,North,0,0.0,0.0,81,0.00,,,0.00,proprietary,2013-02-06 14:36:00,
2013-02-06 09:41:00,23.3,18.7,29.22,West,270,1.3,2.1,82,0.00,,,0.00,proprietary,2013-02-06 14:41:00,
2013-02-06 09:46:00,25.3,19.8,29.22,North,0,0.0,0.0,79,0.00,,,0.00,proprietary,2013-02-06 14:46:00,
2013-02-06 09:51:00,25.6,19.2,29.22,North,0,0.0,0.0,76,0.00,,,0.00,proprietary,2013-02-06 14:51:00,
2013-02-06 09:56:00,25.4,17.1,29.22,NW,319,2.5,3.0,70,0.00,,,0.00,proprietary,2013-02-06 14:56:00,
2013-02-06 10:01:00,23.5,15.5,29.22,NW,318,2.3,3.1,71,0.00,,,0.00,proprietary,2013-02-06 15:01:00,
2013-02-06 10:06:00,22.6,15.1,29.22,NW,304,1.5,2.6,72,0.00,,,0.00,proprietary,2013-02-06 15:06:00,
2013-02-06 10:11:00,22.3,15.3,29.22,WNW,301,2.2,2.7,74,0.00,,,0.00,proprietary,2013-02-06 15:11:00,
2013-02-06 10:16:00,22.6,15.4,29.23,NW,321,1.5,1.9,73,0.00,,,0.00,proprietary,2013-02-06 15:16:00,
2013-02-06 10:21:00,23.1,15.9,29.22,NW,322,1.4,1.7,73,0.00,,,0.00,proprietary,2013-02-06 15:21:00,
2013-02-06 10:26:00,23.8,16.5,29.22,NNW,332,1.5,1.7,73,0.00,,,0.00,proprietary,2013-02-06 15:26:00,
2013-02-06 10:31:00,25.6,17.8,29.23,North,0,0.0,0.0,72,0.00,,,0.00,proprietary,2013-02-06 15:31:00,
2013-02-06 10:36:00,25.1,16.0,29.23,SSE,150,1.2,1.9,67,0.00,,,0.00,proprietary,2013-02-06 15:36:00,
2013-02-06 10:41:00,25.1,15.9,29.23,SE,144,0.4,1.6,67,0.00,,,0.00,proprietary,2013-02-06 15:41:00,
2013-02-06 10:46:00,25.2,16.3,29.23,ESE,116,1.8,2.6,68,0.00,,,0.00,proprietary,2013-02-06 15:46:00,
2013-02-06 10:51:00,26.1,16.7,29.23,SE,141,3.2,3.8,67,0.00,,,0.00,proprietary,2013-02-06 15:51:00,
2013-02-06 10:56:00,25.7,16.1,29.23,SSE,149,3.1,3.4,66,0.00,,,0.00,proprietary,2013-02-06 15:56:00,
2013-02-06 11:01:00,25.1,15.7,29.23,SSE,167,2.8,3.6,66,0.00,,,0.00,proprietary,2013-02-06 16:01:00,
2013-02-06 11:06:00,24.7,15.2,29.23,SE,143,2.7,3.6,66,0.00,,,0.00,proprietary,2013-02-06 16:06:00,
2013-02-06 11:11:00,24.4,15.2,29.23,East,89,2.2,2.7,67,0.00,,,0.00,proprietary,2013-02-06 16:11:00,
2013-02-06 11:16:00,25.7,16.2,29.23,SSW,194,4.8,5.4,66,0.00,,,0.00,proprietary,2013-02-06 16:16:00,
2013-02-06 11:21:00,25.3,15.5,29.23,SSW,199,3.0,3.8,65,0.00,,,0.00,proprietary,2013-02-06 16:21:00,
2013-02-06 11:26:00,25.0,15.8,29.23,WSW,237,2.7,3.0,67,0.00,,,0.00,proprietary,2013-02-06 16:26:00,
2013-02-06 11:31:00,25.8,16.0,29.23,WSW,253,3.5,4.8,65,0.00,,,0.00,proprietary,2013-02-06 16:31:00,
2013-02-06 11:36:00,25.9,15.8,29.23,South,174,1.8,3.0,65,0.00,,,0.00,proprietary,2013-02-06 16:36:00,
2013-02-06 11:41:00,26.2,16.4,29.23,SSE,164,3.6,4.6,65,0.00,,,0.00,proprietary,2013-02-06 16:41:00,
2013-02-06 11:46:00,26.0,15.6,29.23,SW,218,1.2,5.8,64,0.00,,,0.00,proprietary,2013-02-06 16:46:00,
2013-02-06 11:51:00,26.2,15.8,29.23,SW,219,3.0,4.7,64,0.00,,,0.00,proprietary,2013-02-06 16:51:00,
2013-02-06 11:56:00,26.4,15.4,29.23,SSW,201,5.0,6.0,62,0.00,,,0.00,proprietary,2013-02-06 16:56:00,
2013-02-06 12:01:00,26.4,15.8,29.23,South,189,3.3,4.7,63,0.00,,,0.00,proprietary,2013-02-06 17:01:00,
2013-02-06 12:06:00,26.5,15.5,29.23,SW,220,4.9,6.7,62,0.00,,,0.00,proprietary,2013-02-06 17:06:00,
2013-02-06 12:11:00,26.9,16.4,29.23,SSW,203,4.8,5.7,64,0.00,,,0.00,proprietary,2013-02-06 17:11:00,
2013-02-06 12:16:00,27.0,15.6,29.23,South,184,3.3,4.8,61,0.00,,,0.00,proprietary,2013-02-06 17:16:00,
2013-02-06 12:21:00,27.1,15.0,29.22,South,187,3.1,3.9,59,0.00,,,0.00,proprietary,2013-02-06 17:21:00,
2013-02-06 12:26:00,27.3,14.1,29.23,SW,226,3.0,6.9,57,0.00,,,0.00,proprietary,2013-02-06 17:26:00,
2013-02-06 12:31:00,27.4,15.3,29.22,WSW,254,4.3,5.3,59,0.00,,,0.00,proprietary,2013-02-06 17:31:00,
2013-02-06 12:36:00,27.4,15.6,29.22,South,169,5.6,7.1,60,0.00,,,0.00,proprietary,2013-02-06 17:36:00,
2013-02-06 12:41:00,27.2,14.9,29.22,South,170,3.9,5.1,59,0.00,,,0.00,proprietary,2013-02-06 17:41:00,
2013-02-06 12:46:00,27.7,14.5,29.22,SSE,159,7.0,7.7,56,0.00,,,0.00,proprietary,2013-02-06 17:46:00,
2013-02-06 12:51:00,28.3,14.7,29.22,SW,231,1.3,2.8,56,0.00,,,0.00,proprietary,2013-02-06 17:51:00,
2013-02-06 12:56:00,28.5,15.0,29.22,SSW,207,5.3,6.8,56,0.00,,,0.00,proprietary,2013-02-06 17:56:00,
2013-02-06 13:01:00,28.9,15.4,29.23,SSW,200,5.4,8.9,56,0.00,,,0.00,proprietary,2013-02-06 18:01:00,
2013-02-06 13:06:00,28.6,15.3,29.23,SW,220,4.0,5.7,56,0.00,,,0.00,proprietary,2013-02-06 18:06:00,
2013-02-06 13:11:00,29.0,15.7,29.23,South,190,4.3,5.1,56,0.00,,,0.00,proprietary,2013-02-06 18:11:00,
2013-02-06 13:16:00,29.2,14.4,29.23,SSW,198,4.6,6.3,53,0.00,,,0.00,proprietary,2013-02-06 18:16:00,
2013-02-06 13:21:00,29.4,15.2,29.23,SSW,213,4.6,5.6,54,0.00,,,0.00,proprietary,2013-02-06 18:21:00,
2013-02-06 13:26:00,28.9,15.1,29.23,SW,214,5.9,7.8,55,0.00,,,0.00,proprietary,2013-02-06 18:26:00,
2013-02-06 13:31:00,28.6,15.0,29.23,WNW,287,2.9,3.9,56,0.00,,,0.00,proprietary,2013-02-06 18:31:00,
2013-02-06 13:36:00,28.6,14.8,29.23,NW,313,3.0,4.1,55,0.00,,,0.00,proprietary,2013-02-06 18:36:00,
2013-02-06 13:41:00,28.6,14.9,29.23,NNW,344,3.0,4.2,55,0.00,,,0.00,proprietary,2013-02-06 18:41:00,
2013-02-06 13:46:00,29.7,15.3,29.23,SSW,192,2.3,4.2,54,0.00,,,0.00,proprietary,2013-02-06 18:46:00,
2013-02-06 13:51:00,29.4,15.1,29.23,SSE,160,4.2,5.8,54,0.00,,,0.00,proprietary,2013-02-06 18:51:00,
2013-02-06 13:56:00,29.9,15.0,29.22,SSW,195,5.1,5.9,53,0.00,,,0.00,proprietary,2013-02-06 18:56:00,
2013-02-06 14:01:00,29.2,15.3,29.22,SW,229,2.1,2.4,55,0.00,,,0.00,proprietary,2013-02-06 19:01:00,
2013-02-06 14:08:00,29.9,15.3,29.22,South,186,1.5,3.0,53,0.00,,,0.00,proprietary,2013-02-06 19:08:00,
2013-02-06 14:13:00,29.4,14.8,29.22,SE,138,0.5,1.7,53,0.00,,,0.00,proprietary,2013-02-06 19:13:00,
2013-02-06 14:18:00,29.7,15.1,29.21,WSW,239,3.6,4.5,53,0.00,,,0.00,proprietary,2013-02-06 19:18:00,
2013-02-06 14:23:00,29.5,14.6,29.21,South,189,2.8,3.5,53,0.00,,,0.00,proprietary,2013-02-06 19:23:00,
2013-02-06 14:28:00,30.6,14.8,29.21,West,263,2.5,3.6,51,0.00,,,0.00,proprietary,2013-02-06 19:28:00,
2013-02-06 14:33:00,30.9,14.8,29.21,SSE,147,4.8,5.4,50,0.01,,,0.01,proprietary,2013-02-06 19:33:00,
2013-02-06 14:38:00,31.1,15.5,29.21,SSW,198,5.5,8.5,51,0.01,,,0.01,proprietary,2013-02-06 19:38:00,
2013-02-06 14:43:00,30.4,14.8,29.21,NNW,339,2.8,4.0,51,0.02,,,0.02,proprietary,2013-02-06 19:43:00,
2013-02-06 14:48:00,31.1,15.6,29.20,North,11,1.8,2.3,51,0.04,,,0.04,proprietary,2013-02-06 19:48:00,
2013-02-06 14:53:00,32.3,14.7,29.20,WSW,257,2.2,3.0,47,0.05,,,0.05,proprietary,2013-02-06 19:53:00,
2013-02-06 14:58:00,31.6,14.8,29.20,WSW,240,3.3,5.4,49,0.06,,,0.06,proprietary,2013-02-06 19:58:00,
2013-02-06 15:03:00,31.3,14.2,29.20,WSW,249,2.3,3.9,48,0.06,,,0.06,proprietary,2013-02-06 20:03:00,
2013-02-06 15:08:00,31.7,14.6,29.20,SW,217,3.6,5.1,48,0.07,,,0.07,proprietary,2013-02-06 20:08:00,
2013-02-06 15:13:00,31.5,14.4,29.20,SW,227,0.4,2.1,48,0.08,,,0.08,proprietary,2013-02-06 20:13:00,
2013-02-06 15:18:00,32.0,14.4,29.20,SSE,161,5.7,6.8,47,0.08,,,0.08,proprietary,2013-02-06 20:18:00,
2013-02-06 15:23:00,31.2,13.9,29.20,SSE,167,1.0,1.5,48,0.09,,,0.09,proprietary,2013-02-06 20:23:00,
2013-02-06 15:28:00,32.5,14.7,29.20,WSW,247,3.3,4.2,47,0.09,,,0.09,proprietary,2013-02-06 20:28:00,
2013-02-06 15:33:00,33.5,14.1,29.20,SSE,151,2.5,3.2,44,0.09,,,0.10,proprietary,2013-02-06 20:33:00,
2013-02-06 15:38:00,31.6,15.1,29.20,SSE,147,3.5,4.2,49,0.09,,,0.10,proprietary,2013-02-06 20:38:00,
2013-02-06 15:43:00,31.6,14.9,29.20,SE,143,4.3,5.6,49,0.08,,,0.10,proprietary,2013-02-06 20:43:00,
2013-02-06 15:48:00,31.2,15.5,29.20,SE,144,5.4,6.0,51,0.06,,,0.10,proprietary,2013-02-06 20:48:00,
2013-02-06 15:53:00,30.8,15.2,29.20,SE,143,5.3,7.6,52,0.05,,,0.10,proprietary,2013-02-06 20:53:00,
2013-02-06 15:58:00,30.4,16.1,29.20,SE,127,5.4,7.9,54,0.04,,,0.10,proprietary,2013-02-06 20:58:00,
2013-02-06 16:03:00,29.8,16.5,29.20,SE,134,5.7,8.6,56,0.04,,,0.10,proprietary,2013-02-06 21:03:00,
2013-02-06 16:08:00,29.4,17.0,29.20,ESE,122,5.5,7.5,59,0.04,,,0.11,proprietary,2013-02-06 21:08:00,
2013-02-06 16:13:00,29.3,17.3,29.20,SE,133,5.0,6.9,60,0.03,,,0.11,proprietary,2013-02-06 21:13:00,
2013-02-06 16:18:00,29.3,16.9,29.20,SE,129,6.2,8.6,59,0.03,,,0.11,proprietary,2013-02-06 21:18:00,
2013-02-06 16:23:00,29.1,16.9,29.20,SE,142,8.1,12.1,59,0.02,,,0.11,proprietary,2013-02-06 21:23:00,
2013-02-06 16:28:00,28.6,16.8,29.20,SE,146,9.3,12.4,60,0.02,,,0.11,proprietary,2013-02-06 21:28:00,
2013-02-06 16:33:00,28.2,16.7,29.20,SE,141,7.5,9.4,61,0.01,,,0.11,proprietary,2013-02-06 21:33:00,
2013-02-06 16:38:00,28.1,16.6,29.20,SE,142,7.3,9.6,61,0.01,,,0.11,proprietary,2013-02-06 21:38:00,
2013-02-06 16:43:00,27.8,16.3,29.20,SE,132,8.1,9.2,61,0.01,,,0.11,proprietary,2013-02-06 21:43:00,
2013-02-06 16:48:00,27.7,16.2,29.21,SE,135,6.9,7.9,61,0.01,,,0.11,proprietary,2013-02-06 21:48:00,
2013-02-06 16:53:00,27.6,16.3,29.21,SSE,150,8.3,9.0,62,0.01,,,0.11,proprietary,2013-02-06 21:53:00,
2013-02-06 16:58:00,27.3,16.0,29.21,SE,143,6.4,8.2,61,0.01,,,0.11,proprietary,2013-02-06 21:58:00,
2013-02-06 17:03:00,27.3,15.8,29.21,SSE,151,7.4,9.4,61,0.01,,,0.11,proprietary,2013-02-06 22:03:00,
2013-02-06 17:08:00,27.2,15.6,29.22,SE,141,6.5,7.6,60,0.00,,,0.11,proprietary,2013-02-06 22:08:00,
2013-02-06 17:13:00,27.2,15.7,29.21,SE,142,5.2,5.9,61,0.00,,,0.11,proprietary,2013-02-06 22:13:00,
2013-02-06 17:18:00,27.0,15.5,29.22,SE,142,5.3,6.6,61,0.00,,,0.11,proprietary,2013-02-06 22:18:00,
2013-02-06 17:23:00,26.8,15.5,29.22,SSE,147,5.1,6.9,61,0.00,,,0.11,proprietary,2013-02-06 22:23:00,
2013-02-06 17:28:00,26.5,15.5,29.23,SE,141,6.8,7.7,62,0.00,,,0.11,proprietary,2013-02-06 22:28:00,
2013-02-06 17:33:00,26.4,15.3,29.23,SE,129,4.9,6.0,62,0.00,,,0.11,proprietary,2013-02-06 22:33:00,
2013-02-06 17:38:00,26.3,15.3,29.23,SSE,149,4.2,4.6,62,0.00,,,0.11,proprietary,2013-02-06 22:38:00,
2013-02-06 17:43:00,26.1,14.6,29.23,South,175,6.4,7.5,61,0.00,,,0.11,proprietary,2013-02-06 22:43:00,
2013-02-06 17:48:00,26.1,14.7,29.24,South,177,4.4,5.8,61,0.00,,,0.11,proprietary,2013-02-06 22:48:00,
2013-02-06 17:53:00,26.0,14.4,29.23,South,180,4.9,5.8,61,0.00,,,0.11,proprietary,2013-02-06 22:53:00,
2013-02-06 17:58:00,25.9,14.2,29.23,SSE,166,4.7,6.1,60,0.00,,,0.11,proprietary,2013-02-06 22:58:00,
2013-02-06 18:03:00,25.5,14.1,29.23,SSE,161,3.9,4.7,61,0.00,,,0.11,proprietary,2013-02-06 23:03:00,
2013-02-06 18:08:00,25.1,14.0,29.23,SSE,151,4.3,5.1,62,0.00,,,0.11,proprietary,2013-02-06 23:08:00,
2013-02-06 18:13:00,24.7,13.9,29.23,South,173,3.8,4.3,62,0.00,,,0.11,proprietary,2013-02-06 23:13:00,
2013-02-06 18:18:00,24.5,13.8,29.24,SSE,162,4.6,6.0,63,0.00,,,0.11,proprietary,2013-02-06 23:18:00,
2013-02-06 18:23:00,24.5,13.7,29.24,South,181,3.8,4.7,62,0.00,,,0.11,proprietary,2013-02-06 23:23:00,
2013-02-06 18:28:00,24.2,13.7,29.24,SSE,167,4.0,4.7,63,0.00,,,0.11,proprietary,2013-02-06 23:28:00,
2013-02-06 18:33:00,24.2,13.4,29.24,South,180,4.6,6.2,63,0.00,,,0.11,proprietary,2013-02-06 23:33:00,
2013-02-06 18:38:00,23.9,13.3,29.24,SSE,166,3.6,4.6,63,0.00,,,0.11,proprietary,2013-02-06 23:38:00,
2013-02-06 18:43:00,23.7,13.3,29.24,SSE,158,2.6,3.4,63,0.00,,,0.11,proprietary,2013-02-06 23:43:00,
2013-02-06 18:48:00,23.4,13.2,29.25,SSE,156,3.4,4.0,64,0.00,,,0.11,proprietary,2013-02-06 23:48:00,
2013-02-06 18:53:00,22.9,12.9,29.25,SSE,149,3.2,3.5,64,0.00,,,0.11,proprietary,2013-02-06 23:53:00,
2013-02-06 18:58:00,22.4,12.7,29.25,SE,138,2.6,3.2,65,0.00,,,0.11,proprietary,2013-02-06 23:58:00,
2013-02-06 19:03:00,22.0,12.7,29.25,SE,140,1.6,2.1,66,0.00,,,0.11,proprietary,2013-02-07 00:03:00,
2013-02-06 19:08:00,21.6,12.6,29.25,ESE,122,1.6,2.1,67,0.00,,,0.11,proprietary,2013-02-07 00:08:00,
2013-02-06 19:13:00,21.3,12.4,29.25,SE,139,1.7,2.0,68,0.00,,,0.11,proprietary,2013-02-07 00:13:00,
2013-02-06 19:18:00,20.9,12.3,29.25,SE,142,1.8,2.6,68,0.00,,,0.11,proprietary,2013-02-07 00:18:00,
2013-02-06 19:23:00,20.8,12.4,29.25,SE,132,2.0,2.7,69,0.00,,,0.11,proprietary,2013-02-07 00:23:00,
2013-02-06 19:28:00,20.8,12.6,29.25,SE,142,2.8,3.6,69,0.00,,,0.11,proprietary,2013-02-07 00:28:00,
2013-02-06 19:33:00,20.6,12.3,29.25,SSE,147,3.6,4.0,69,0.00,,,0.11,proprietary,2013-02-07 00:33:00,
2013-02-06 19:38:00,20.3,12.0,29.25,SE,142,3.2,3.7,69,0.00,,,0.11,proprietary,2013-02-07 00:38:00,
2013-02-06 19:43:00,20.0,11.9,29.26,SSE,152,3.4,3.9,70,0.00,,,0.11,proprietary,2013-02-07 00:43:00,
2013-02-06 19:48:00,19.8,11.7,29.26,SSE,147,3.6,4.4,70,0.00,,,0.11,proprietary,2013-02-07 00:48:00,
2013-02-06 19:53:00,19.8,12.0,29.26,SSE,149,3.3,3.5,71,0.00,,,0.11,proprietary,2013-02-07 00:53:00,
2013-02-06 19:58:00,20.2,12.2,29.26,SSE,157,2.7,3.4,70,0.00,,,0.11,proprietary,2013-02-07 00:58:00,
2013-02-06 20:03:00,20.0,12.0,29.26,SSE,150,2.5,3.2,70,0.00,,,0.11,proprietary,2013-02-07 01:03:00,
2013-02-06 20:08:00,19.7,11.7,29.25,SSE,147,2.7,3.5,70,0.00,,,0.11,proprietary,2013-02-07 01:08:00,
2013-02-06 20:13:00,19.5,11.6,29.25,SE,143,2.3,3.1,70,0.00,,,0.11,proprietary,2013-02-07 01:13:00,
2013-02-06 20:18:00,20.0,12.3,29.25,SE,138,2.6,3.3,71,0.00,,,0.11,proprietary,2013-02-07 01:18:00,
2013-02-06 20:23:00,20.3,12.2,29.25,SE,142,4.4,5.0,70,0.00,,,0.11,proprietary,2013-02-07 01:23:00,
2013-02-06 20:28:00,20.4,12.2,29.24,SSE,149,4.7,5.8,70,0.00,,,0.11,proprietary,2013-02-07 01:28:00,
2013-02-06 20:33:00,20.1,12.0,29.24,SE,146,3.9,4.3,70,0.00,,,0.11,proprietary,2013-02-07 01:33:00,
2013-02-06 20:38:00,20.0,12.1,29.24,SSE,157,3.7,4.9,71,0.00,,,0.11,proprietary,2013-02-07 01:38:00,
2013-02-06 20:43:00,20.2,12.1,29.24,SSE,155,4.1,4.7,70,0.00,,,0.11,proprietary,2013-02-07 01:43:00,
2013-02-06 20:48:00,20.5,12.0,29.24,SSE,153,4.0,5.1,69,0.00,,,0.11,proprietary,2013-02-07 01:48:00,
2013-02-06 20:53:00,20.3,11.7,29.24,SE,138,3.8,4.8,68,0.00,,,0.11,proprietary,2013-02-07 01:53:00,
2013-02-06 20:58:00,19.9,11.5,29.24,SE,141,3.9,4.7,69,0.00,,,0.11,proprietary,2013-02-07 01:58:00,
2013-02-06 21:03:00,19.7,11.5,29.23,SSE,152,4.7,5.4,70,0.00,,,0.11,proprietary,2013-02-07 02:03:00,
2013-02-06 21:08:00,19.4,11.3,29.22,SE,142,5.2,5.8,70,0.00,,,0.11,proprietary,2013-02-07 02:08:00,
2013-02-06 21:13:00,19.2,11.3,29.23,SSE,156,3.4,4.0,70,0.00,,,0.11,proprietary,2013-02-07 02:13:00,
2013-02-06 21:18:00,19.2,11.4,29.22,SSE,147,3.7,4.2,71,0.00,,,0.11,proprietary,2013-02-07 02:18:00,
2013-02-06 21:24:00,19.2,11.4,29.23,SE,146,3.7,5.4,71,0.00,,,0.11,proprietary,2013-02-07 02:24:00,
2013-02-06 21:29:00,19.0,11.3,29.23,SSE,149,4.0,4.9,71,0.00,,,0.11,proprietary,2013-02-07 02:29:00,
2013-02-06 21:34:00,18.9,11.4,29.23,SSE,152,4.3,4.9,71,0.00,,,0.11,proprietary,2013-02-07 02:34:00,
2013-02-06 21:40:00,19.1,11.5,29.23,SSE,155,3.7,4.4,71,0.00,,,0.11,proprietary,2013-02-07 02:40:00,
2013-02-06 21:45:00,19.2,11.6,29.23,SSE,155,3.8,5.2,71,0.00,,,0.11,proprietary,2013-02-07 02:45:00,
2013-02-06 21:50:00,19.2,11.7,29.23,SE,137,3.8,4.7,71,0.00,,,0.11,proprietary,2013-02-07 02:50:00,
2013-02-06 21:55:00,19.5,12.0,29.22,SE,140,5.3,6.5,71,0.00,,,0.11,proprietary,2013-02-07 02:55:00,
2013-02-06 22:00:00,20.4,12.6,29.21,SE,136,4.9,5.7,71,0.00,,,0.11,proprietary,2013-02-07 03:00:00,
2013-02-06 22:07:00,21.1,12.7,29.21,SE,137,4.9,6.4,69,0.00,,,0.11,proprietary,2013-02-07 03:07:00,
2013-02-06 22:12:00,21.4,12.8,29.20,SE,137,5.3,6.2,68,0.00,,,0.11,proprietary,2013-02-07 03:12:00,
2013-02-06 22:18:00,21.5,12.8,29.20,SE,144,5.5,7.2,68,0.00,,,0.11,proprietary,2013-02-07 03:18:00,
2013-02-06 22:24:00,21.6,12.9,29.20,SE,134,5.3,6.7,68,0.00,,,0.11,proprietary,2013-02-07 03:24:00,
2013-02-06 22:29:00,21.8,13.0,29.20,SE,136,5.5,7.0,68,0.00,,,0.11,proprietary,2013-02-07 03:29:00,
2013-02-06 22:34:00,22.0,13.2,29.19,SE,140,5.2,6.5,68,0.00,,,0.11,proprietary,2013-02-07 03:34:00,
2013-02-06 22:39:00,22.1,13.1,29.19,SE,139,5.9,8.0,67,0.00,,,0.11,proprietary,2013-02-07 03:39:00,
2013-02-06 22:44:00,22.2,13.4,29.20,SSE,149,5.6,6.7,68,0.00,,,0.11,proprietary,2013-02-07 03:44:00,
2013-02-06 22:49:00,22.4,13.4,29.20,SE,146,6.1,7.1,67,0.00,,,0.11,proprietary,2013-02-07 03:49:00,
2013-02-06 22:54:00,22.6,13.3,29.20,SSE,151,4.0,4.9,67,0.00,,,0.11,proprietary,2013-02-07 03:54:00,
2013-02-06 23:00:00,22.7,13.4,29.20,SE,145,4.8,5.8,66,0.00,,,0.11,proprietary,2013-02-07 04:00:00,
2013-02-06 23:05:00,22.8,13.4,29.21,SSE,162,3.0,4.6,66,0.00,,,0.11,proprietary,2013-02-07 04:05:00,
2013-02-06 23:10:00,22.7,13.8,29.21,SSE,168,3.1,3.5,67,0.00,,,0.11,proprietary,2013-02-07 04:10:00,
2013-02-06 23:15:00,22.7,13.9,29.21,SSE,162,2.7,3.4,68,0.00,,,0.11,proprietary,2013-02-07 04:15:00,
2013-02-06 23:21:00,22.8,13.9,29.21,SSE,159,2.1,2.9,68,0.00,,,0.11,proprietary,2013-02-07 04:21:00,
2013-02-06 23:26:00,22.8,13.9,29.21,ESE,116,1.0,1.5,68,0.00,,,0.11,proprietary,2013-02-07 04:26:00,
2013-02-06 23:32:00,22.9,13.8,29.21,SE,131,3.3,4.2,67,0.00,,,0.11,proprietary,2013-02-07 04:32:00,
2013-02-06 23:38:00,23.0,13.7,29.21,SE,136,2.3,2.9,66,0.00,,,0.11,proprietary,2013-02-07 04:38:00,
2013-02-06 23:43:00,23.0,13.9,29.21,SE,143,2.9,4.6,67,0.00,,,0.11,proprietary,2013-02-07 04:43:00,
2013-02-06 23:48:00,23.0,13.8,29.21,SE,143,3.7,4.4,67,0.00,,,0.11,proprietary,2013-02-07 04:48:00,
2013-02-06 23:53:00,23.0,13.9,29.22,SSE,148,2.1,2.6,67,0.00,,,0.11,proprietary,2013-02-07 04:53:00,
2013-02-06 23:58:00,23.0,13.9,29.22,SSE,163,3.5,4.0,67,0.00,,,0.11,proprietary,2013-02-07 04:58:00,